CAPE
649 494 626 686 399 159 186 168 312 559 867 832 1027 1062 1088 616 879 1010 1111 907 1476 1058
765 687 635 812 627 506 242 9 214 281 314 459 884 993 1004 798 602 775 649 489 809 1307
825 788 904 789 302 342 129 68 271 74 57 266 735 744 669 950 883 819 466 11 1229 1052
539 471 758 712 663 330 133 6 0 0 299 577 793 650 758 677 695 472 732 685 879 643
48 359 494 366 359 370 321 265 325 535 862 823 911 771 840 928 928 951 685 672 826 727
183 24 464 333 112 156 410 753 940 845 827 687 673 707 830 876 723 644 754 709 794 810
155 179 271 339 259 63 175 271 372 528 755 595 329 323 364 497 554 603 679 861 855 788
54 22 24 29 22 20 4 12 150 473 277 113 43 9 7 41 228 467 550 725 777 618
97 46 19 10 15 0 2 0 37 39 24 0 0 0 0 0 87 476 703 549 362 463
298 202 276 196 154 67 1 0 4 0 0 0 0 0 0 0 0 126 295 406 483 327
308 177 119 59 27 0 13 17 0 0 0 0 0 0 0 0 17 115 228 136 174 21
120 41 11 0 29 7 0 10 3 0 0 0 0 0 0 0 30 193 1 0 0 0
0 0 0 0 0 0 0 6 0 0 0 0 0 0 0 0 0 0 0 0 0 0
0 0 0 0 0 0 0 0 0 0 0 0 0 0 0 0 0 0 0 0 0 0
CIN
-19 -20 -20 -25 -66 -133 -131 -143 -96 -40 -9 -13 -24 -16 -17 -19 -29 -43 -48 -48 -53 -60
-12 -11 -13 -13 -38 -73 -97 -48 -118 -100 -56 -36 -7 -14 -9 -14 -27 -49 -52 -58 -50 -29
-7 -9 -8 -16 -84 -85 -138 -185 -104 -113 -145 -58 -18 -14 -12 -12 -18 -29 -38 -48 -35 -48
-20 -25 -12 -14 -15 -57 -126 -48 -0 -0 -70 -27 -18 -10 -6 -8 -13 -21 -33 -32 -33 -35
-119 -53 -24 -27 -40 -60 -67 -72 -58 -47 -34 -18 -14 -8 -5 -6 -8 -8 -14 -17 -11 -12
-51 -79 -20 -34 -63 -39 -43 -29 -15 -19 -20 -33 -17 -17 -15 -20 -17 -14 -17 -13 -8 -6
-36 -50 -63 -50 -61 -79 -54 -38 -30 -23 -14 -22 -68 -80 -71 -65 -39 -17 -18 -11 -6 -4
-88 -64 -66 -93 -98 -105 -24 -100 -39 -16 -49 -103 -163 -247 -146 -156 -77 -26 -22 -30 -12 -24
-72 -63 -94 -111 -89 -1 -63 -1 -40 -63 -107 -0 -0 -0 -0 -0 -127 -42 -28 -24 -16 -39
-23 -11 -2 -22 -36 -67 -16 -0 -61 -0 -0 -0 -0 -0 -0 -0 -18 -89 -37 -28 -31 -58
-36 -38 -53 -63 -110 -0 -108 -54 -0 -0 -0 -0 -0 -0 -0 -0 -103 -108 -88 -116 -110 -134
-128 -150 -115 -0 -101 -122 -0 -98 -128 -0 -0 -0 -0 -0 -0 -0 -188 -83 -14 -0 -0 -0
-0 -0 -0 -0 -0 -0 -0 -85 -0 -0 -0 -0 -0 -0 -0 -0 -0 -0 -0 -0 -0 -0
-0 -0 -0 -0 -0 -0 -0 -0 -0 -0 -0 -0 -0 -0 -0 -0 -0 -0 -0 -0 -0 -0
Wind_Speed
5 6 9 10 9 10 10 12 15 21 21 21 21 13 19 21 20 17 21 18 18 19
6 5 8 8 8 9 9 18 7 11 22 23 20 14 7 20 20 21 23 23 21 16
4 8 7 7 6 8 9 8 16 7 22 22 23 7 8 13 15 19 22 23 20 23
3 4 7 6 6 6 8 12 11 20 18 22 23 13 10 11 16 19 20 21 23 25
3 4 4 6 8 8 8 8 10 15 16 18 19 16 19 13 20 19 11 12 21 18
3 2 11 8 11 12 14 14 13 15 18 18 21 24 17 22 26 25 20 23 25 18
10 9 11 14 15 17 21 22 21 20 20 18 18 20 20 20 23 21 15 19 17 16
11 10 13 17 21 20 22 22 22 20 15 16 19 21 23 22 22 14 19 20 20 19
7 8 9 15 19 21 23 22 22 17 17 18 19 21 22 22 21 21 20 18 23 19
7 8 9 9 11 16 17 17 14 14 15 18 21 23 21 22 21 21 21 22 21 18
6 7 9 10 12 14 15 14 10 10 12 15 18 19 20 21 21 18 18 19 18 18
6 8 10 12 13 15 14 13 10 10 10 13 16 18 17 17 17 16 17 17 17 18
10 9 12 13 14 16 15 11 9 10 11 13 16 20 20 19 18 17 17 17 19 21
11 12 13 14 15 15 16 10 10 12 14 16 18 20 21 20 19 19 19 20 22 24
Wind_Direction
62 22 328 329 356 351 339 335 293 237 222 210 198 201 232 253 265 298 273 300 302 300
102 347 332 349 1 7 61 182 27 109 233 231 181 148 23 212 279 263 246 247 285 319
334 311 333 354 35 37 47 75 156 7 240 221 211 172 359 323 317 295 269 261 292 288
37 329 314 343 356 29 350 331 114 247 276 246 239 320 336 325 305 298 297 291 285 277
93 336 354 335 334 348 354 355 334 307 303 294 290 303 293 320 286 297 169 178 301 319
337 6 314 320 309 300 310 309 321 308 305 301 288 276 303 286 261 270 300 287 270 316
325 325 311 293 300 299 294 287 292 298 296 306 306 300 297 295 289 297 312 305 317 332
337 331 300 289 290 299 298 295 292 299 313 312 304 298 292 297 292 319 303 301 307 317
24 357 340 308 297 302 298 298 297 304 303 310 305 310 302 297 296 299 304 317 300 321
21 25 15 355 342 321 320 324 316 306 307 302 301 301 312 300 297 300 304 306 311 324
354 4 5 9 360 348 348 348 352 341 328 320 316 313 307 306 304 310 314 316 323 325
335 335 336 337 332 337 339 355 0 358 352 346 337 319 319 322 321 317 323 327 331 329
320 321 321 323 326 327 326 339 359 346 338 338 326 324 322 320 315 317 318 323 320 321
318 318 318 319 318 322 313 334 337 335 329 325 325 323 325 321 315 309 308 314 313 313